Regional Weather Roundup
Issued by NWS

Home | Current Version | Previous Version | Text Only | Print | Product List | Glossary Off
Versions: 1 2 3 4 5 6 7 8 9 10 11 12 13 14 15 16 17 18 19 20 21 22 23 24 25 26 27 28 29 30 31 32 33 34 35 36 37 38 39 40 41 42 43 44 45 46 47 48 49 50

983
ASUS43 KLOT 092012
RWRIL

ILLINOIS REGIONAL WEATHER ROUNDUP
NATIONAL WEATHER SERVICE CHICAGO/ROMEOVILLE IL
200 PM CST FRI DEC 09 2016

NOTE: "FAIR" INDICATES FEW OR NO CLOUDS BELOW 12,000 FEET WITH NO
SIGNIFICANT WEATHER AND/OR OBSTRUCTIONS TO VISIBILITY.

* THESE STATIONS ARE NOT UNDER NWS QUALITY CONTROL. THEY ALSO MAY NOT
  REPORT WEATHER SUCH AS PRECIPITATION OR FOG.

ILZ001-002-007-009-015-016-024-092100-
NORTHWEST ILLINOIS

CITY           SKY/WX    TMP DP  RH WIND       PRES   REMARKS
MOLINE         CLOUDY    24  12  60 W7        30.55F WCI  16
STERLING*      SUNNY     23  14  68 NW7       30.53F WCI  15
SAVANNA*       SUNNY     26  12  56 W9        30.53S WCI  16
$$

ILZ003-004-008-010-011-017-018-092100-
NORTH CENTRAL ILLINOIS

CITY           SKY/WX    TMP DP  RH WIND       PRES   REMARKS
ROCKFORD       PTSUNNY   25  14  63 NW9       30.51F WCI  15
FREEPORT*      MOSUNNY   22  13  68 W9        30.52F WCI  11
ROCHELLE*      SUNNY     23  14  68 W9        30.51F WCI  13
DE KALB*       PTSUNNY   22  13  69 NW9       30.49F WCI  12
$$

ILZ005-006-012>014-019>023-092100-
NORTHEAST ILLINOIS

CITY           SKY/WX    TMP DP  RH WIND       PRES   REMARKS
CHICAGO-OHARE  FLURRIES  25  13  60 W12       30.49S WCI  14
CHICAGO-MIDWAY FLURRIES  26  12  55 NW12      30.50F WCI  16
AURORA         CLOUDY    24  15  68 W12       30.51F WCI  13
LANSING*       CLOUDY    25  17  70 W12       30.51S WCI  14
JOLIET*        CLOUDY    25  15  65 W7        30.52F WCI  18
WAUKEGAN       MOSUNNY   26  11  52 W9G17     30.46F WCI  17
DUPAGE AIRPORT CLOUDY    24  13  62 NW10      30.49F WCI  14
KANKAKEE*      CLOUDY    25  13  61 W8G16     30.53S WCI  16
WHEELING       CLOUDY    26  12  55 W9        30.50F WCI  17
MORRIS*        PTSUNNY   24  14  66 NW9       30.51F WCI  15
ROMEOVILLE*    PTSUNNY   24  17  73 W8        30.51F WCI  15
NORTHERLY ISL    N/A     26  15  63 W8          N/A  WCI  18
$$

LMZ740>746-092100-
SOUTHERN LAKE MICHIGAN

STATION/POSITION SKY/WX   TEMP    WIND        PRES    VSBY  WAVE
                          AIR SEA DIR/SP/G                  HT/PER
                          (F)     (DEG/KT/KT) (MB)    (MI)  (FT/S)
HARRISON CRIB              26     280/ 13/ 15   N/A
BURNHAM HARBOR             26     290/  7/ 13   N/A
CALUMET HARBOR             26     250/  5/ 10 1032.0S
BURNS HARBOR               27     280/ 12/ 16 1032.8S
$$

ILZ025>027-034>036-040-047-049-050-058-095>099-092100-
WEST-CENTRAL ILLINOIS

CITY           SKY/WX    TMP DP  RH WIND       PRES   REMARKS
QUINCY         MOSUNNY   22  13  68 W7        30.57S WCI  13
GALESBURG*     CLOUDY    23  15  70 W7        30.55S WCI  15
MACOMB*        CLOUDY    23  13  67 W7        30.58F WCI  15
JACKSONVILLE*  CLOUDY    24  13  63 W7        30.58S WCI  16
PITTSFIELD*    MOSUNNY   24  14  66 W5        30.58S WCI  18
$$

ILZ028>032-037-038-041>044-048-051>054-059>061-092100-
CENTRAL ILLINOIS

CITY           SKY/WX    TMP DP  RH WIND       PRES   REMARKS
PONTIAC        CLOUDY    26  16  64 NW9       30.54S WCI  17
BLOOMINGTON    FLURRIES  24  14  65 NW8       30.53F WCI  15
DECATUR        CLOUDY    23  13  65 W6        30.56F WCI  16
PEORIA         CLOUDY    26  13  57 NW8       30.55F WCI  18
LACON*         FLURRIES  25  13  62 NW7       30.54S WCI  17
LINCOLN*       CLOUDY    25  15  66 W3        30.56F
SPRINGFIELD    CLOUDY    25  14  63 NW8       30.57F WCI  16
TAYLORVILLE    CLOUDY    23  13  65 CALM      30.57F
$$

ILZ033-039-045-046-055>057-062-063-092100-
EAST-CENTRAL ILLINOIS

CITY           SKY/WX    TMP DP  RH WIND       PRES   REMARKS
CHAMPAIGN      FLURRIES  26  12  55 NW13      30.54F WCI  15
RANTOUL*       FLURRIES  27  17  65 W8        30.53F WCI  19
MATTOON        CLOUDY    24  15  68 NW5       30.54F WCI  18
PARIS*         CLOUDY    27  16  63 NW5       30.55F WCI  21
$$

ILZ079-100>102-092100-
SOUTHWEST ILLINOIS

CITY           SKY/WX    TMP DP  RH WIND       PRES   REMARKS
ALTON          CLOUDY    27  14  59 W8        30.60S WCI  18
BELLEVILLE     MOSUNNY   30  13  49 NW8       30.59S WCI  22
CAHOKIA*       MOSUNNY   30  12  47 W9G16     30.60F WCI  22
SPARTA*        MOSUNNY   29  13  51 W10       30.60F WCI  20
$$

ILZ064>066-069>071-074>076-080>082-084>086-088>090-092>094-092100-
SOUTH-CENTRAL ILLINOIS

CITY           SKY/WX    TMP DP  RH WIND       PRES   REMARKS
CARBONDALE     SUNNY     31  14  49 VRB6      30.60F WCI  25
CAIRO*         SUNNY     32  17  53 W6        30.61S WCI  26
EFFINGHAM*     CLOUDY    26  17  71 NW3       30.58F
CENTRALIA*     CLOUDY    28  17  62 W8        30.58S WCI  20
SALEM*         CLOUDY    28  14  56 W7        30.58S WCI  21
METROPOLIS*    SUNNY     32  16  51 W7        30.60F WCI  26
$$

ILZ067-068-072-073-078-083-087-091-092100-
SOUTHEAST ILLINOIS

CITY           SKY/WX    TMP DP  RH WIND       PRES   REMARKS
LAWRENCEVILLE  CLOUDY    27  14  58 W6        30.58F WCI  20
FLORA*         CLOUDY    29  15  58 NW7       30.59S WCI  21
FAIRFIELD*     CLOUDY    29  15  56 CALM      30.57F
HARRISBURG*    MOSUNNY   31  16  54 W9        30.60S WCI  23
ROBINSON*      CLOUDY    26  14  61 W8        30.59S WCI  17
CARMI*         MOSUNNY   29  16  58 W7        30.58F WCI  22
$$

ABBREVIATIONS USED IN REMARKS
   TC - TEMPERATURE IN CELSIUS
  WCI - WIND CHILL INDEX
   HX - HEAT INDEX
  VSB - VISIBILITY
$$





USA.gov is the U.S. government's official web portal to all federal, state and local government web resources and services.